Regional Weather Roundup
Issued by NWS

Home | Current Version | Previous Version | Text Only | Print | Product List | Glossary On
Versions: 1 2 3 4 5 6 7 8 9 10 11 12 13 14 15 16 17 18 19 20 21 22 23 24 25 26 27 28 29 30 31 32 33 34 35 36 37 38 39 40 41 42 43 44 45 46 47 48 49 50
989
ASUS44 KLIX 010905
RWRLA
LOUISIANA WEATHER ROUNDUP
NATIONAL WEATHER SERVICE NEW ORLEANS LA
400 AM CDT WED OCT 01 2014

NOTE: "FAIR" INDICATES FEW OR NO CLOUDS BELOW 12,000 FEET WITH NO
      SIGNIFICANT WEATHER AND/OR OBSTRUCTIONS TO VISIBILITY.
      SKY/WX - SKY CONDITION AND SIGNIFICANT WEATHER.
      TMP - AIR TEMPERATURE.    DP   - DEWPOINT TEMPERATURE.
      RH  - RELATIVE HUMIDITY.  PRES - PRESSURE.
      HX  - HEAT INDEX.         WCI  - WIND CHILL INDEX.

*  THESE STATIONS ARE NOT NWS OR FAA STATIONS AND ARE NOT UNDER
   NWS QUALITY CONTROL.

LAZ040-048-061>063-065-066-069-011000-
SOUTHEAST LOUISIANA

CITY           SKY/WX    TMP DP  RH WIND       PRES   REMARKS
N.O. AUDUBON     N/A     75  74  97 MISG        N/A
N.O. INTL ARPT PTCLDY    77  72  84 CALM      29.87S
N.O. LAKEFRONT CLEAR     76  72  87 SE6       29.88S
N.O. DOWNTOWN* FAIR      77  70  78 SE6       29.88S
SLIDELL        PTCLDY    69  66  90 CALM      29.88S
BATON ROUGE    PTCLDY    72  70  93 CALM      29.87F
BOOTHVILLE     CLEAR     77  74  90 E3        29.88S
BELLE CHASSE   CLEAR     72  68  87 CALM      29.87S
BOGALUSA*      FOG       68  65  90 CALM      29.90F VSB 1/4
GALLIANO*      NOT AVBL
NEW ROADS*     CLOUDY    73  72  98 CALM      29.87S FOG
GONZALES*      FAIR      72  72 100 CALM      29.87S FOG
HAMMOND*       CLEAR     70  66  88 CALM      29.90S
HOUMA*         CLEAR    N/A N/A N/A E3        29.86S
PORT FOURCHON* MOSUNNY   81  75  83 SE10      29.89S

$$

LAZ041-044-053-054-011000-
SOUTHWEST LOUISIANA

CITY           SKY/WX    TMP DP  RH WIND       PRES   REMARKS
LAKE CHARLES   PTCLDY    76  74  93 E6        29.82F FOG
LAFAYETTE      PTCLDY    75  74  96 CALM      29.85F FOG
PATTERSON      CLEAR     73  73 100 E6          N/A
SALT POINT       N/A     79  76  90 VRB3      29.84F
NEW IBERIA     PTCLDY    76  74  93 E7        29.85F
CHENAULT AIRPK CLOUDY    74  74  99 E6        29.83F FOG

$$

LAZ027-028-011000-
CENTRAL LOUISIANA

CITY           SKY/WX    TMP DP  RH WIND       PRES   REMARKS
FORT POLK      FOG       74  73  96 SE5       29.85R VSB 1
ALEXANDRIA INT MOCLDY    74  72  93 SE5       29.84S
ALEXANDRIA     MOCLDY    72  70  93 CALM      29.86S

$$

LAZ001-002-011000-
NORTHWEST LOUISIANA

CITY           SKY/WX    TMP DP  RH WIND       PRES   REMARKS
SHREVEPORT     MOCLDY    75  70  84 S5        29.83S
BARKSDALE AFB  MOCLDY    74  70  88 SE6       29.84R
DTN SHREVEPORT CLOUDY    76  69  79 SE5       29.83S

$$

LAZ014-016-011000-
NORTHEAST LOUISIANA

CITY           SKY/WX    TMP DP  RH WIND       PRES   REMARKS
MONROE         MOCLDY    75  69  81 S6        29.87R
TALLULAH       MOCLDY    74  69  85 S5        29.88R

$$




USA.gov is the U.S. government's official web portal to all federal, state and local government web resources and services.